Location: Northcutt
(34.7304°N, 84.4305°W)
Time: 10:19:43
(UTC+00:00)

A-11 Canister half - Pass Details

Date: 03 October 2022
Orbit: 1524 x 1685 km, 47.3° (Epoch: 30 November)

Event Time Altitude Azimuth Distance (km) Brightness Sun altitude
Rises 01:42:33 0° 302° (WNW) 4,705 12.7 -29.7°
Reaches altitude 10° 01:45:42 10° 307° (NW) 3,737 11.8 -30.4°
Maximum altitude 01:54:57 54° 24° (NNE) 1,868 9.3 -32.2°
Enters shadow 01:56:23 51° 51° (NE) 1,942 9.2 -32.4°
Drops below altitude 10° 02:04:29 10° 100° (E) 3,852 - -34.0°
Sets 02:07:46 0° 105° (ESE) 4,859 - -34.6°
